Location: Grandview
(34.8900°N, 117.1058°W)
Time: 13:52:20
(UTC-07:00)

ISS - Pass Details

Date: 15 October 2017
Orbit: 401 x 408 km, 51.6° (Epoch: 18 October)

Event Time Altitude Azimuth Distance (km) Brightness Sun altitude
Rises 20:17:48 0° 294° (WNW) 2,319 1.2 -26.3°
Reaches altitude 10° 20:20:28 10° 271° (W) 1,457 0.0 -26.9°
Enters shadow 20:22:15 16° 238° (WSW) 1,169 -1.0 -27.2°
